Tracking 20942 objects as of 9-Jul-2020
HD Live streaming from Space Station
objects crossing your sky now

FENGYUN 1C DEB

Track FENGYUN 1C DEB now!
10-day predictions


NORAD ID: 33730
Int'l Code: 1999-025DHT
Perigee: 731.6 km
Apogee: 822.8 km
Inclination: 99.0 °
Period: 100.2 minutes
Semi major axis: 7148 km
RCS: 0.0099 m2 (small)
Launch date: May 10, 1999
Source: People's Republic of China (PRC)
Launch site: Taiyaun Space Center, China (TSC)

Note: This is SATELLITE DEBRIS
aabbcc
Your satellite tracking list
Your tracking list is empty




NASA's NSSDC Master Catalog

Two Line Element Set (TLE):
1 33730U 99025DHT 20191.45588206  .00000466  00000-0  17091-3 0  9999
2 33730  99.0265  92.6232 0063800 134.1898 226.4554 14.36499362672251
Source of the keplerian elements: AFSPC